STARLINK-35680, 66610

Orbit data source: Space-Track

STARLINK-35680, 66610 is a payload satellite owned by SpaceX/Seattle (US) in LEO that was launched on Sat, 22 Nov 2025 UTC via an FALCON 9 launch vehicle from the Air Force Eastern Test Range (AFETR). Payload-class satellites include a variety of spacecraft equipped with specific instruments for various scientific and technological missions. These include communications satellites like Starlink; space stations such as the ISS; scientific satellites like the Hubble; Earth observation satellites from companies like Planet Labs, Umbra, and HawkEye 360; GPS; miniature CubeSats for education and research; and military/defense satellites.

Loading next visibility...
Identifier
66610, 2025-270Y
Orbit
LEO
Country
Flag of USUS
Related business
Manufacturer
SpaceX/Seattle
Mission
Operational Commercial Communications
Bus & Motor
STARLINK V2MO, Unknown motor
Mass
575 kg wet, ~530 kg dry
Launch date (UTC)
2025-11-22 (7 months ago)
Launch vehicle
FALCON 9
Launch site
Air Force Eastern Test Range (AFETR)
Object type
Payload
Rocket body
Debris
Shape & HBR
Box + 2 Pan, 17.7 m
Radar Cross Section
36.964 m², Large (>1 m²)

Expand to show TLE details & history
Last TLE update: 17 hours ago

TLE from 17 hours ago
0 STARLINK-35680
1 66610U 25270Y   26171.13622133  .00015577  00000-0  57407-3 0  9994
2 66610  42.9998 197.6214 0002023 265.7777  94.2844 15.27598071 33484
Epoch: 2026-06-20T03:16Z
TLE epoch observation values (Epoch: 2026-06-20T03:16:09.522Z)
Latitude
-0°
Longitude
-119.77345°
Altitude
482.874 km
Speed
7.626 km/s
True Right ascension
13h 10m 29s
True Declination
0° 00' 00"
Sunlit
Object was in daylight at epoch
Visualization orbit readout
Latitude
Unknown
Longitude
Unknown
Altitude
Unknown
Speed
Unknown
Apparent Right ascension
Unknown
Apparent Declination
Unknown
Sunlit
N/A
Visualization observer readout
Local Sidereal Time
07:14:53
Azimuth
Unknown
Elevation
Unknown
Doppler factor
Unknown
Orbital elements
Apogee altitude
486.329 km
Perigee altitude
483.552 km
Semi-major axis
6,863.077 km
Eccentricity
0.0002
Inclination
42.9998°
RAAN
197.6214°
Arg. of periapsis
265.7777°
True anomaly
94.30752°
Mean anomaly
94.2844°
Eccentric anomaly
94.29596°
Mean motion
3.81738 °/min
Orbital period
94.31 mins
BSTAR
0.00057407
Loading maneuver chart data...
Computing Atmospheric mass density...
Loading historical data...
Loading historical data...
Loading historical data...
Loading historical data...
Loading historical data...
Loading historical data...
Loading historical data...

Documentation

Showing up to 5 results
|